Regional Weather Roundup
Issued by NWS

Home | Current Version | Previous Version | Graphics & Text | Print | Product List | Glossary On
Versions: 1 2 3 4 5 6 7 8 9 10 11 12 13 14 15 16 17 18 19 20 21 22 23 24 25 26 27 28
000
ASUS45 KPSR 220710
RWRAZ

ARIZONA HOURLY REGIONAL WEATHER ROUNDUP
NATIONAL WEATHER SERVICE PHOENIX AZ
1200 AM MST FRI SEP 22 2017

NOTE: FAIR INDICATES FEW OR NO CLOUDS BELOW 12,000 FEET WITH NO
SIGNIFICANT WEATHER AND/OR OBSTRUCTIONS TO VISIBILITY.

AZZ001>003-036-220800-
NORTHWEST ARIZONA

CITY           SKY/WX    TMP DP  RH WIND       PRES   REMARKS
BULLHEAD CITY  CLEAR     75  28  17 W9        29.67S
KINGMAN        CLEAR     62  41  46 SW10      29.77S
$$

AZZ004>008-015-016-018-220800-
NORTH CENTRAL ARIZONA

CITY           SKY/WX    TMP DP  RH WIND       PRES   REMARKS
GRAND CANYON   PTCLDY    53  34  48 SW12G21   29.89F
WILLIAMS       CLEAR     54  36  50 SW17G25   29.90F
PRESCOTT       CLEAR     59  37  44 S7        29.86F
FLAGSTAFF      CLEAR     54  36  50 SW14G24   29.93F
PAYSON           N/A     64  27  24 SW7G15    29.91F
PAGE           PTCLDY    71  39  31 S14G21    29.71R
$$

AZZ009>014-017-220800-
NORTHEAST ARIZONA

CITY           SKY/WX    TMP DP  RH WIND       PRES   REMARKS
WINSLOW        CLEAR     60  35  39 VRB3      29.86F
SAINT JOHNS    PTCLDY    62  38  40 W9        29.93S
WINDOW ROCK    CLOUDY    59  33  37 CALM      29.98S
SHOW LOW       CLEAR     61  34  36 S14       29.98S
$$

AZZ540-542>544-546-548-220800-
GREATER PHOENIX AREA

CITY           SKY/WX    TMP DP  RH WIND       PRES   REMARKS
PHOENIX        PTCLDY    82  42  24 SW14G24   29.68R
BUCKEYE          N/A     75  48  38 SW8       29.69S
LUKE AFB       CLEAR     78  44  29 SW16      29.67S
DEER VALLEY    CLEAR     78  38  23 SW10      29.69F
SCOTTSDALE     PTCLDY    80  34  19 S5        29.72R
MESA-GATEWAY   PTCLDY    75  36  23 SE6       29.73R
$$

AZZ539-553-220800-
SOUTHWEST MARICOPA COUNTY AND PINAL COUNTY

CITY           SKY/WX    TMP DP  RH WIND       PRES   REMARKS
CASA GRANDE    NOT AVBL
GILA BEND      FAIR      77  48  35 SW9       29.68F
$$

AZZ503-504-507>509-220800-
SOUTHEAST ARIZONA

CITY           SKY/WX    TMP DP  RH WIND       PRES   REMARKS
TUCSON         CLEAR     79  46  31 S8        29.83R
DAVIS-MONTHAN  CLEAR     73  47  39 SW5       29.81S
NOGALES        CLEAR     70  43  37 SE9       29.91F
SIERRA VISTA   CLEAR     70  40  33 S7        29.96S
DOUGLAS        CLEAR     67  44  43 S8        29.93F
SAFFORD        CLEAR     77  38  24 VRB6      29.79S
$$

AZZ532-220800-
SOUTHWEST ARIZONA

CITY           SKY/WX    TMP DP  RH WIND       PRES   REMARKS
YUMA           CLEAR     70  49  47 NW12G23   29.70F
$$

CAZ041-043-047-048-061-525>527-560>570-220800-
SOUTHERN CALIFORNIA

CITY           SKY/WX    TMP DP  RH WIND       PRES   REMARKS
DOWNTOWN L.A.  CLEAR     65  54  67 VRB3      29.83S
L.A. AIRPORT   PTCLDY    63  54  72 E8        29.83S
SAN DIEGO      MOCLDY    66  54  65 SW6       29.87F
BURBANK        CLEAR     61  51  70 SE5       29.84S
ONTARIO        PTCLDY    58  50  75 W9        29.85F
RIVERSIDE      PTCLDY    59  50  72 CALM      29.85F
PALM SPRINGS   CLEAR     70  44  39 NW20G29   29.73R
EL CENTRO NAS  CLEAR     69  45  41 W22G29    29.73F
IMPERIAL       CLEAR     69  46  43 W20       29.70S
BLYTHE         CLEAR     73  53  49 S7        29.69R
NEEDLES        CLEAR     75  35  23 NW17      29.69R
$$

NVZ020-UTZ003-220800-
SOUTHERN NEVADA-UTAH

CITY           SKY/WX    TMP DP  RH WIND       PRES   REMARKS
LAS VEGAS      PTCLDY    65  26  23 SW7       29.74R
SALT LAKE CITY CLOUDY    41  38  89 S12       29.82F
$$

NMZ009-TXZ055-220800-
NEW MEXICO-WEST TEXAS

CITY           SKY/WX    TMP DP  RH WIND       PRES   REMARKS
ALBUQUERQUE    PTCLDY    68  39  34 S10       29.94S
EL PASO        PTCLDY    81  45  28 SW9       29.90F
$$


........................KEY........................
SKY/WX - SKY CONDITION/WEATHER
TMP    - TEMPERATURE IN FAHRENHEIT
DP     - DEW POINT IN FAHRENHEIT
RH     - RELATIVE HUMIDITY IN PERCENT
WIND   - DIRECTION AND SPEED IN MILES PER HOUR (MPH)
VRB    - VARIABLE WIND DIRECTION
PRES   - MEAN SEA LEVEL PRESSURE IN INCHES OF MERCURY
         F - FALLING PRESSURE   R - RISING PRESSURE
         S - STEADY PRESSURE
VSB    - VISIBILITY IN MILES
HX     - HEAT INDEX IN FAHRENHEIT
WCI    - WIND CHILL INDEX IN FAHRENHEIT
TC     - TEMPERATURE IN CELSIUS WHICH IS ALSO KNOWN AS
         TEMPERATURE IN CENTIGRADE
AFB    - AIR FORCE BASE
         LUKE AFB IS LUKE AIR FORCE BASE
         DAVIS-MONTHAN IS DAVIS-MONTHAN AIR FORCE BASE
NAS    - NAVAL AIR STATION
         EL CENTRO NAS IS EL CENTRO NAVAL AIR STATION
N/A    - NOT AVAILABLE





USA.gov is the U.S. government's official web portal to all federal, state and local government web resources and services.